Location: 22
(39.7117°N, 89.5929°W)
Time: 08:12:26
(UTC-05:00)

Hubble Space Telescope - Pass Details

Date: 26 April 2026
Orbit: 473 x 476 km, 28.5° (Epoch: 18 May)

Event Time Altitude Azimuth Distance (km) Brightness Sun altitude
Rises 21:21:54 0° 241° (WSW) 2,508 4.5 -16.9°
Reaches altitude 10° 21:24:50 10° 217° (SW) 1,631 3.2 -17.4°
Enters shadow 21:26:13 14° 196° (SSW) 1,401 2.7 -17.6°
